User: anonymous   Login
Location: Asheville, NC
(35.6000°N, 82.5500°W)
Time: 17:45:49
(UTC-05:00)
Language:

CUBEBUG 2 - Orbit

View from above orbital plane
View from above orbital plane
View from above satellite
View from above satellite

Ground track
Ground track

The orbit data is extracted from the following two-line orbital elements,

1 39440U 13066AA  18320.02471601  .00000254  00000-0  42203-4 0  9997
2 39440  97.5996 326.2265 0081690  62.8867 298.0646 14.75750294268313
Epoch (UTC): 16 November 2018 00:35:35
Eccentricity: 0.0081690
inclination: 97.5996°
perigee height: 585 km
apogee height: 700 km
right ascension of ascending node: 326.2265°
argument of perigee: 62.8867°
revolutions per day: 14.75750294
mean anomaly at epoch: 298.0646°
orbit number at epoch: 26831

The dashed part of the orbit path shows where the satellite is in the earth's shadow,  

DLR